Regional Weather Roundup
Issued by NWS

Home | Current Version | Previous Version | Text Only | Print | Product List | Glossary Off
Versions: 1 2 3 4 5 6 7 8 9 10 11 12 13 14 15 16 17 18 19 20 21 22 23 24 25 26 27 28 29 30 31 32 33 34 35 36 37 38 39 40 41 42 43 44 45 46 47 48 49 50

000
ASUS43 KDTX 301010
RWRMI
MICHIGAN HOURLY REGIONAL WEATHER ROUNDUP
NATIONAL WEATHER SERVICE DETROIT/PONTIAC MI
600 AM EDT SAT MAY 30 2015

NOTE: "FAIR" INDICATES FEW OR NO CLOUDS BELOW 12,000 FEET WITH NO
SIGNIFICANT WEATHER AND/OR OBSTRUCTION TO VISIBILITY.

MIZ047>049-052>055-059>063-066>070-074>076-081>083-301100-
SOUTHEAST LOWER MICHIGAN

CITY           SKY/WX    TMP DP  RH WIND       PRES   REMARKS
ADRIAN         CLEAR     69  64  84 SW9       29.99R
ALMA           CLOUDY    68  66  94 SW5       29.93R
ANN ARBOR      PTCLDY    69  64  84 SW9       29.97R
BAD AXE        CLOUDY    68  65  89 SW9       29.92R
CARO           CLOUDY    68  66  94 SW6       29.92R
DETROIT CITY   PTCLDY    70  64  81 SW12      29.96S
DETROIT        MOCLDY    71  64  78 S9        29.98R
FLINT          MOCLDY    73  64  73 SW6       29.94R
GROSSE ILE     PTCLDY    72  64  78 SW9       29.97R
HILLSDALE      MOCLDY    69  67  93 SW6       29.99S
HOWELL         MOCLDY    69  64  85 S3        29.96R

CITY           SKY/WX    TMP DP  RH WIND       PRES   REMARKS
JACKSON        PTCLDY    69  64  84 SW8       29.97R
LAMBERTVILLE   PTCLDY    70  63  78 SW6       29.99S
LANSING        MOCLDY    69  66  90 SW10      29.95R
LAPEER         FAIR      70  63  77 SW7       29.94R
MASON          MOCLDY    69  63  80 SW5       29.96R
MONROE         MOCLDY    72  64  78 SW7       29.97S
MT. CLEMENS    CLOUDY    70  65  85 S8        29.94R
PONTIAC        MOCLDY    70  63  78 S7        29.95R
PORT HOPE        N/A     70  66  87 VRB7      29.88R
PORT HURON     PTCLDY    66  64  94 S7        29.95R
TRI CITIES     CLOUDY    70  66  87 SW10      29.91S
MIDLAND        CLOUDY    68  66  94 SW6       29.90R
TROY           PTCLDY    72  65  79 SW9       29.98R
SAGINAW HB     CLOUDY    68  68 100 SW9       29.91R
$$
MIZ043>046-050>051-056>058-064>065-071>073-077>080-301100-
SOUTHWEST LOWER MICHIGAN

CITY           SKY/WX    TMP DP  RH WIND       PRES   REMARKS
BATTLE CREEK   CLOUDY    69  65  86 SW9       29.97R
BENTON HARBOR  CLOUDY    68  65  90 SW8       29.95R
BIG RAPIDS     CLOUDY    65  62  89 N3        29.92R
COLDWATER      MOCLDY    68  64  85 SW3       29.98R
FREMONT        CLOUDY    62  61  97 CALM      29.92S
HOLLAND        CLOUDY    62  60  93 W8        29.95R
GRAND RAPIDS   CLOUDY    68  65  90 SW9       29.94R
IONIA          FAIR      69  66  92 SW8       29.93R
KALAMAZOO      CLOUDY    69  65  86 SW7       29.96R
LUDINGTON      LGT RAIN  57  55  92 NE3       29.93R
MARSHALL       CLOUDY    71  64  79 SW6       29.96R
MOUNT PLEASANT LGT RAIN  67  65  92 SW6       29.92R
MUSKEGON       CLOUDY    58  57  97 CALM      29.93R FOG
SOUTH HAVEN    CLOUDY    69  64  84 SW13G18   29.95R
$$
MIZ016>042-301100-
NORTHERN LOWER MICHIGAN

CITY           SKY/WX    TMP DP  RH WIND       PRES   REMARKS
ALPENA         LGT RAIN  64  62  93 NW10      29.89R
BEAVER ISLAND  LGT RAIN  48  47  97 NW6       29.95R
BELLAIRE       CLOUDY    56  54  95 CALM      29.95R
CADILLAC       DRIZZLE   62  60  93 NW7       29.94R
CHARLEVOIX     LGT RAIN  51  51 100 W6        29.98R
FRANKFORT      DRIZZLE   55  50  83 N3        29.95R
GAYLORD        LGT RAIN  57  57 100 VRB3      29.93R FOG
GRAYLING       DRIZZLE   60  59  96 W5        29.93R
HARBOR SPRINGS LGT RAIN  48  48 100 SW3       29.93R VSB 3/4
HOUGHTON LAKE  CLOUDY    61  60  97 W7        29.93R
MANISTEE       CLOUDY    54  50  87 CALM      29.95R
OSCODA         MOCLDY    68  67  97 SW7       29.87R
PELLSTON       LGT RAIN  53  52  96 NW12      29.92S
ROGERS CITY    CLOUDY    60  60  98 W7        29.90R FOG
TRAVERSE CITY  LGT RAIN  54  52  93 N6        29.94R
$$
MIZ007>008-015-301100-
EASTERN UPPER MICHIGAN

CITY           SKY/WX    TMP DP  RH WIND       PRES   REMARKS
KINROSS        CLOUDY    50  48  93 NW12      29.91R
MACKINAC ISLAN LGT RAIN  53  53 100 W10       29.92R
NEWBERRY       LGT RAIN  46  45  98 NW7       29.97R
S. S. MARIE    LGT RAIN  45  44  97 W12       29.91R
MUNISING         N/A     44  40  85 NW16      30.03R
$$
MIZ004>006-011>014-085-301100-
CENTRAL UPPER MICHIGAN

CITY           SKY/WX    TMP DP  RH WIND       PRES   REMARKS
MANISTIQUE     LGT RAIN  46  44  93 N15G24    29.96R
ESCANABA       CLOUDY    48  45  87 N10       29.98R
MENOMINEE      CLOUDY    52  46  82 N7        29.99R
SAWYER-GWINN   CLOUDY    46  42  89 N17G24    30.04R
$$
MIZ001>003-009>011-084-301100-
WESTERN UPPER MICHIGAN

CITY           SKY/WX    TMP DP  RH WIND       PRES   REMARKS
IRON MOUNTAIN  CLOUDY    51  48  89 N10       30.01R
HOUGHTON       CLOUDY    46  42  86 N8        30.08R
COPPER HARBOR    N/A     43  40  89 N9        30.09R
IRONWOOD       CLOUDY    45  43  93 NW6       30.08S
$$

ABBREVIATIONS USED IN REMARKS
   TC - TEMPERATURE IN CELSIUS
  WCI - WIND CHILL INDEX
   HX - HEAT INDEX
  VSB - VISIBILITY




USA.gov is the U.S. government's official web portal to all federal, state and local government web resources and services.